Change the Weather History Date:

Wednesday, April 24, 2013

  Actual Average Record
Temperature  
Mean Temperature 54 °F 59 °F  
Max Temperature 65 °F 75 °F 90 °F (1966)
Min Temperature 42 °F 42 °F 32 °F (1961)
Degree Days  
Heating Degree Days 11 7  
Month to date heating degree days 97 216  
Since 1 July heating degree days 2346 2675  
Cooling Degree Days 0 0  
Month to date cooling degree days 9 0  
Year to date cooling degree days 9 0  
Growing Degree Days 4 (Base 50)    
Moisture  
Dew Point 46 °F    
Average Humidity 75    
Maximum Humidity 93    
Minimum Humidity 56    
Precipitation  
Precipitation 0.00 in 0.02 in 0.19 in (1967)
Month to date precipitation 0.01 0.59  
Year to date precipitation 1.41 8.42  
Since 1 July precipitation 4.62 12.41  
Sea Level Pressure  
Sea Level Pressure 29.89 in    
Wind  
Wind Speed 10 mph (SSW)    
Max Wind Speed 24 mph    
Max Gust Speed 30 mph    
Visibility 10 miles    
Events      
T = Trace of Precipitation, MM = Missing Value Source: NWS Daily Summary

Daily Weather History Graph

Daily Weather History Graph

Search for Another Location

Airport or City:

Trip Planner

Search our weather history database for the weather conditions in past years. The results will help you decide how hot, cold, wet, or windy it might be!

Date:

Astronomy

Apr. 24, 2013 Rise Set
Actual Time 6:18 AM PDT 7:43 PM PDT
Civil Twilight 5:51 AM PDT 8:10 PM PDT
Nautical Twilight 5:19 AM PDT 8:42 PM PDT
Astronomical Twilight 4:45 AM PDT 9:16 PM PDT
Moon 6:53 PM PDT (4/24) 5:22 AM PDT (4/24)
Length of Visible Light 14h 19m
Length of Day
13h 25m
Waxing Gibbous, 98% of the Moon is Illuminated
Apr 24
Waxing Gibbous
Apr 25
Full
May 2
Last Quarter
May 9
New
May 17
First Quarter

Hourly Weather History & Observations

Time (PDT) Temp. Windchill Dew Point Humidity Pressure Visibility Wind Dir Wind Speed Gust Speed Precip Events Conditions
12:53 AM 50.0 °F - 45.0 °F 83% 29.88 in 10.0 mi Calm Calm - N/A   Clear
1:53 AM 48.9 °F - 45.0 °F 86% 29.88 in 10.0 mi Calm Calm - N/A   Clear
3:53 AM 45.0 °F - 42.1 °F 90% 29.86 in 10.0 mi Calm Calm - N/A   Clear
4:08 AM 46.4 °F - 42.8 °F 87% 29.87 in 10.0 mi Calm Calm - N/A   Scattered Clouds
4:16 AM 44.6 °F - 42.8 °F 93% 29.87 in 10.0 mi Calm Calm - N/A   Mostly Cloudy
4:38 AM 44.6 °F - 41.0 °F 87% 29.87 in 10.0 mi Calm Calm - N/A   Scattered Clouds
4:53 AM 44.1 °F - 41.0 °F 89% 29.86 in 10.0 mi Calm Calm - N/A   Clear
5:00 AM 44.6 °F 43.1 °F 41.0 °F 87% 29.87 in 10.0 mi SE 3.5 mph - N/A   Scattered Clouds
5:41 AM 46.4 °F 43.5 °F 46.4 °F 100% 29.87 in 10.0 mi South 5.8 mph - N/A   Mostly Cloudy
5:53 AM 48.0 °F - 46.9 °F 96% 29.86 in 8.0 mi South 8.1 mph - N/A   Overcast
6:49 AM 48.2 °F - 46.4 °F 93% 29.87 in 10.0 mi SSE 8.1 mph - N/A   Overcast
6:53 AM 48.9 °F - 46.0 °F 90% 29.87 in 10.0 mi SSE 6.9 mph - N/A   Overcast
7:53 AM 51.1 °F - 46.9 °F 86% 29.89 in 10.0 mi SSW 5.8 mph - N/A   Overcast
8:53 AM 54.0 °F - 48.0 °F 80% 29.90 in 10.0 mi SSW 10.4 mph - N/A   Overcast
9:37 AM 55.4 °F - 48.2 °F 77% 29.90 in 10.0 mi SW 11.5 mph 17.3 mph N/A   Overcast
9:53 AM 55.9 °F - 48.0 °F 75% 29.90 in 10.0 mi SW 12.7 mph - N/A   Overcast
10:37 AM 60.8 °F - 48.2 °F 63% 29.91 in 10.0 mi SW 13.8 mph 21.9 mph N/A   Mostly Cloudy
10:53 AM 60.1 °F - 48.9 °F 67% 29.90 in 10.0 mi WSW 17.3 mph - N/A   Mostly Cloudy
11:07 AM 60.8 °F - 48.2 °F 63% 29.91 in 10.0 mi SW 15.0 mph - N/A   Partly Cloudy
11:53 AM 63.0 °F - 48.9 °F 60% 29.89 in 10.0 mi SSW 13.8 mph - N/A   Clear
12:53 PM 63.0 °F - 48.9 °F 60% 29.88 in 10.0 mi SW 18.4 mph - N/A   Clear
1:53 PM 64.0 °F - 48.9 °F 58% 29.88 in 10.0 mi SSW 20.7 mph 29.9 mph N/A   Clear
2:53 PM 63.0 °F - 48.9 °F 60% 29.87 in 10.0 mi SSW 20.7 mph 29.9 mph N/A   Partly Cloudy
3:53 PM 62.1 °F - 48.9 °F 62% 29.87 in 10.0 mi SSW 20.7 mph 27.6 mph N/A   Partly Cloudy
4:53 PM 61.0 °F - 48.9 °F 64% 29.86 in 10.0 mi SSW 17.3 mph 25.3 mph N/A   Clear
5:53 PM 60.1 °F - 48.9 °F 67% 29.87 in 10.0 mi SSW 18.4 mph 23.0 mph N/A   Clear
6:53 PM 57.0 °F - 46.9 °F 69% 29.89 in 10.0 mi SSW 16.1 mph 20.7 mph N/A   Clear
7:53 PM 55.9 °F - 46.0 °F 69% 29.91 in 10.0 mi SSW 10.4 mph - N/A   Clear
8:53 PM 55.0 °F - 45.0 °F 69% 29.93 in 10.0 mi SSW 10.4 mph - N/A   Mostly Cloudy
9:53 PM 54.0 °F - 45.0 °F 72% 29.96 in 10.0 mi SSW 5.8 mph - N/A   Clear
10:53 PM 53.1 °F - 45.0 °F 74% 29.97 in 10.0 mi Calm Calm - N/A   Overcast
11:53 PM 53.1 °F - 45.0 °F 74% 29.96 in 10.0 mi SSW 8.1 mph - N/A   Clear